Location: Erp
(42.9417°N, 1.2009°E)
Time: 14:16:35
(UTC+00:00)

Cosmos 968 Rocket - Pass Details

Date: 12 January 2026
Orbit: 737 x 764 km, 74.0° (Epoch: 18 February)

Event Time Altitude Azimuth Distance (km) Brightness Sun altitude
Rises 18:43:20 0° 336° (NNW) 3,208 6.9 -21.6°
Reaches altitude 10° 18:45:44 10° 334° (NNW) 2,275 6.1 -22.0°
Maximum altitude 18:50:48 63° 254° (WSW) 828 3.8 -22.9°
Drops below altitude 10° 18:55:49 10° 174° (S) 2,243 5.9 -23.8°
Sets 18:58:10 0° 171° (S) 3,158 6.7 -24.2°
